Wind_Speed
18 18 19 20 17 16 15 16 14 12 11 11 11 13 13 13 15 17 16 17 17 16 17 15 14 14 15 17 17 18 20 21 22 25 30 33 35 38 37 34 33 34 36 35 37
19 17 18 18 20 15 15 13 13 11 10 9 10 11 13 14 16 18 15 16 16 16 17 14 14 14 15 17 18 19 20 21 23 27 28 32 34 37 34 33 33 35 39 41 39
19 19 17 16 17 15 18 13 11 11 12 10 9 11 14 15 16 15 15 16 15 16 17 13 13 14 16 16 16 17 21 22 24 27 28 31 35 34 31 31 33 34 34 36 39
22 21 20 19 15 17 15 16 13 12 12 11 11 12 14 14 13 14 14 15 14 16 15 13 14 16 16 16 17 19 21 23 25 27 29 32 35 37 33 29 30 32 30 32 35
21 23 21 21 20 17 16 16 17 14 12 12 13 12 13 14 13 15 14 15 15 15 14 14 15 17 17 16 18 19 21 23 26 28 31 34 37 34 32 27 29 29 29 29 31
22 22 23 22 23 19 18 19 15 15 14 13 12 12 13 14 16 16 15 14 15 14 15 15 17 18 18 18 18 19 21 23 25 28 32 35 38 37 34 30 27 30 29 32 34
24 22 23 23 24 23 19 19 18 14 15 14 13 13 15 15 17 16 16 15 14 16 16 17 18 18 17 18 17 18 20 22 23 28 31 35 37 36 34 32 32 30 30 31 31
27 26 23 24 25 26 22 19 19 18 15 14 14 15 17 18 19 18 17 16 15 17 18 19 19 19 19 17 17 17 19 22 25 28 30 33 35 32 30 27 31 33 32 32 34
30 29 27 26 27 27 26 23 20 21 16 15 16 17 16 19 19 20 19 17 17 19 20 20 20 20 19 17 17 17 18 20 23 26 30 33 33 30 29 31 33 30 27 29 30
34 33 31 30 29 29 28 28 24 22 21 17 17 19 19 19 19 21 21 20 18 19 19 20 20 20 18 17 17 18 17 20 23 27 29 32 33 31 32 34 34 31 32 32 35
38 37 36 34 32 32 31 30 31 27 24 22 17 20 21 20 21 21 22 21 19 18 18 18 19 18 17 17 17 17 17 20 22 25 27 30 33 32 33 36 35 34 35 36 31
43 41 39 39 36 36 34 35 34 31 28 26 22 21 23 22 22 20 20 19 18 16 15 16 17 17 17 18 17 16 17 19 21 22 24 27 31 32 33 37 36 40 35 34 33
43 46 45 42 42 39 39 38 37 36 36 31 26 24 25 24 23 20 20 18 18 16 16 17 17 16 16 17 16 16 17 18 19 21 23 24 26 28 30 36 38 35 36 36 30
45 47 49 48 46 45 43 43 41 42 43 33 34 28 27 26 26 24 21 19 17 15 15 14 15 15 15 16 15 16 17 17 18 20 21 23 23 26 28 35 37 33 36 32 30
50 50 51 53 52 49 49 46 46 45 49 42 38 33 31 28 27 26 25 21 19 15 13 13 13 14 14 16 15 16 16 16 18 19 19 21 24 26 27 32 33 31 33 28 29
60 56 55 57 58 56 52 53 52 51 56 47 43 37 34 32 32 32 27 25 22 19 14 13 12 12 13 13 14 16 15 15 17 18 18 19 22 24 26 30 32 30 30 30 23
69 64 63 61 61 61 58 58 60 61 56 50 45 40 37 35 36 36 33 29 25 20 18 14 13 14 12 11 14 17 16 16 15 16 18 18 19 22 24 27 29 30 28 26 25
77 74 67 66 65 64 64 65 69 65 61 57 44 47 40 38 38 39 38 33 28 24 21 16 14 14 12 11 12 14 15 16 15 15 16 16 17 18 20 24 26 29 27 26 22
78 79 75 68 68 67 71 75 73 70 66 58 51 49 48 40 37 39 40 36 33 27 24 19 14 13 12 12 13 14 14 15 14 14 15 14 15 16 18 20 23 26 28 26 25
79 79 77 69 68 59 75 80 74 70 69 62 58 53 52 43 43 37 37 36 33 29 26 22 18 14 12 10 11 13 13 12 11 12 14 14 14 14 14 16 20 22 25 26 24
81 83 79 73 70 77 77 79 80 70 69 67 61 58 55 53 42 42 38 32 34 31 29 25 23 19 14 12 12 10 8 8 9 11 14 13 13 13 12 13 15 18 21 22 22
81 82 81 78 74 77 82 74 77 74 62 69 64 61 60 55 52 45 43 41 39 37 32 29 28 24 20 15 12 10 9 9 9 10 12 13 11 13 12 11 12 14 16 17 16
73 74 77 82 79 77 79 78 75 75 69 65 69 64 62 58 57 54 48 41 37 36 36 33 31 29 27 21 14 11 10 9 9 10 11 13 11 11 12 11 10 11 12 13 13
66 68 71 80 80 73 76 76 81 75 69 74 64 71 65 62 60 57 54 50 46 43 41 38 35 32 30 28 22 15 11 7 8 9 10 12 13 11 12 11 9 8 9 9 10
54 59 58 68 72 72 67 77 79 77 74 65 71 68 75 65 64 62 57 54 49 47 45 43 39 35 33 31 28 22 15 9 8 7 9 11 13 13 11 10 9 6 6 6 7
46 48 48 58 60 51 64 76 77 74 73 74 76 65 71 72 65 63 58 55 50 47 46 44 41 39 38 35 32 30 21 13 10 8 8 11 12 13 12 11 10 7 5 4 4
39 43 43 50 54 64 66 72 74 82 79 62 60 71 74 75 68 68 61 55 50 46 41 45 44 43 42 39 36 33 25 20 14 12 10 11 11 12 12 13 11 9 7 6 5
Wind_Direction
288 290 293 294 300 292 293 289 288 289 283 284 284 275 271 268 268 266 268 267 271 273 265 263 265 272 274 275 274 280 288 290 291 292 292 298 306 307 305 297 283 270 267 265 262
286 288 298 299 304 286 287 297 294 289 283 282 276 276 279 275 270 267 266 269 273 270 262 258 265 266 273 279 281 285 290 293 294 294 298 304 309 309 307 299 283 272 265 260 258
280 283 286 295 295 286 286 290 295 295 291 280 274 281 280 272 265 263 269 264 266 267 263 268 267 268 270 271 283 289 293 297 299 302 305 310 311 312 306 295 286 277 273 267 256
286 278 284 291 285 293 287 281 297 287 283 275 270 275 269 263 260 263 261 262 262 264 269 270 267 268 273 280 293 292 296 300 303 307 312 314 313 313 308 298 286 281 279 272 270
282 281 280 286 286 284 280 269 287 280 274 267 267 258 260 260 262 262 262 265 264 263 267 264 268 270 277 284 290 291 298 302 308 314 317 317 319 318 308 297 289 284 279 278 274
284 281 278 281 283 281 284 276 266 273 274 264 263 255 257 263 265 263 263 261 266 265 261 265 270 277 282 280 286 293 299 306 311 317 318 320 320 316 312 305 297 292 287 278 275
284 280 276 275 276 274 274 275 269 259 263 261 258 248 257 263 266 264 263 261 263 260 264 266 271 276 282 281 289 294 302 308 315 317 319 321 318 320 317 314 306 302 297 287 280
280 278 275 270 270 269 270 268 269 266 259 256 256 251 258 262 262 264 262 259 262 263 267 268 272 276 282 284 289 295 302 312 317 319 318 322 322 323 317 313 308 304 293 284 277
275 275 273 269 265 268 268 262 258 263 254 250 253 255 257 261 262 262 261 259 261 266 267 268 273 279 282 285 289 291 303 314 314 316 321 325 326 326 324 322 320 316 306 298 288
271 270 269 266 265 262 262 265 257 252 256 248 247 253 256 259 259 259 261 262 260 262 265 269 272 276 280 284 290 293 305 311 317 319 323 326 330 333 331 331 326 317 311 301 294
266 267 265 264 260 261 261 258 260 252 250 249 243 249 255 254 258 258 263 264 267 268 269 270 272 270 276 281 284 289 300 310 315 319 324 330 336 338 335 335 327 319 313 307 303
266 264 261 262 259 258 255 256 256 254 246 246 242 243 250 255 253 251 256 262 266 270 276 280 273 269 273 273 280 285 296 304 310 318 326 336 338 342 341 336 333 331 331 327 319
259 261 262 258 257 254 256 253 255 253 248 243 238 241 245 249 248 246 248 257 265 272 271 270 274 273 271 271 278 284 292 299 309 319 327 340 342 346 343 340 339 338 335 331 326
261 256 260 259 255 253 250 253 253 253 251 237 240 229 242 240 240 242 245 252 262 269 274 274 276 277 273 274 276 280 288 299 310 319 328 338 351 351 348 345 347 343 340 347 349
264 261 254 257 256 251 250 246 247 248 253 243 236 236 238 239 239 240 243 247 253 264 277 280 279 275 272 270 272 277 289 301 310 317 325 341 349 354 356 351 354 357 360 3 13
264 261 257 251 254 252 246 247 243 242 245 244 240 236 236 236 237 239 239 244 250 261 271 272 275 276 273 269 269 276 288 299 310 318 325 342 351 357 358 360 359 4 14 15 31
257 257 256 252 251 250 245 243 244 239 241 242 239 236 233 232 234 238 238 242 246 253 259 266 267 275 271 266 268 280 291 298 308 314 327 342 350 359 0 4 4 7 15 19 29
255 255 252 250 249 250 247 241 238 238 240 242 236 236 234 229 232 233 236 237 243 247 251 256 260 263 264 264 269 283 293 299 307 319 328 337 347 359 3 6 10 9 17 33 38
254 253 253 249 246 247 248 245 246 241 240 239 238 237 234 231 232 233 236 238 237 239 245 247 245 251 261 264 272 281 293 295 303 316 325 335 343 359 6 8 14 17 12 27 41
251 251 251 248 242 246 242 244 244 247 237 239 237 234 234 234 233 234 234 237 236 234 237 240 238 242 256 266 273 282 290 294 304 315 321 337 341 350 7 11 17 18 16 18 31
252 248 246 249 240 233 240 239 243 243 242 237 236 233 231 229 230 228 231 231 234 236 235 234 237 239 250 261 269 273 288 297 309 319 320 335 336 342 359 14 22 23 20 21 23
255 251 247 251 245 237 238 241 239 238 237 239 235 233 232 229 227 228 227 226 232 236 236 232 233 235 241 249 260 261 268 291 310 323 327 328 337 339 352 6 19 29 28 28 26
257 252 247 249 248 241 236 233 240 239 235 238 232 231 233 229 229 226 226 224 222 228 230 234 234 235 238 243 250 254 257 276 302 318 327 329 339 339 345 355 7 22 33 36 39
263 253 244 245 246 243 240 231 231 239 236 233 235 224 227 230 228 226 225 226 227 228 232 234 235 236 239 239 243 247 252 276 306 313 326 338 348 347 337 346 351 8 18 33 36
264 257 246 243 243 243 236 233 226 229 233 229 233 232 223 227 226 227 224 225 227 226 229 231 233 236 239 240 241 244 246 258 288 303 315 327 339 352 334 332 335 352 356 5 26
265 256 247 240 236 231 228 229 224 223 232 235 235 231 226 222 227 226 228 223 227 227 226 228 229 234 237 238 239 240 239 242 258 283 312 324 330 338 346 327 322 331 335 323 351
254 248 246 241 233 227 229 225 222 224 225 216 224 229 225 223 224 224 220 222 224 228 232 229 228 229 232 236 236 235 237 238 246 262 287 314 327 330 343 339 315 319 320 314 315
Height
5838 5837 5836 5835 5833 5832 5831 5830 5829 5828 5829 5831 5830 5830 5830 5830 5831 5832 5832 5833 5834 5834 5834 5834 5835 5834 5835 5834 5833 5832 5832 5831 5829 5827 5823 5819 5816 5810 5807 5804 5802 5802 5801 5800 5798
5836 5835 5833 5832 5831 5828 5828 5827 5828 5827 5826 5827 5828 5828 5827 5828 5828 5830 5830 5830 5831 5832 5833 5832 5832 5832 5832 5831 5830 5829 5827 5826 5825 5822 5819 5814 5809 5804 5799 5795 5793 5792 5790 5789 5790
5832 5831 5830 5829 5828 5827 5826 5825 5824 5823 5824 5825 5825 5824 5825 5826 5827 5828 5827 5828 5829 5830 5830 5828 5828 5829 5829 5829 5827 5825 5823 5822 5820 5817 5813 5809 5803 5797 5792 5788 5784 5782 5780 5779 5780
5831 5829 5829 5827 5825 5823 5823 5823 5822 5821 5822 5823 5822 5822 5823 5824 5826 5825 5825 5826 5826 5827 5826 5825 5826 5826 5826 5824 5823 5821 5819 5816 5815 5812 5808 5803 5797 5791 5785 5782 5778 5774 5773 5772 5771
5826 5826 5825 5824 5822 5820 5818 5818 5820 5820 5820 5820 5820 5821 5821 5822 5822 5823 5824 5823 5824 5823 5822 5823 5823 5823 5822 5821 5820 5817 5815 5813 5809 5806 5801 5796 5790 5784 5778 5774 5771 5768 5767 5766 5765
5822 5821 5820 5821 5821 5819 5819 5816 5814 5817 5817 5817 5817 5817 5818 5820 5820 5820 5820 5820 5820 5819 5820 5820 5820 5820 5818 5818 5817 5814 5812 5810 5806 5801 5796 5791 5785 5778 5773 5767 5765 5762 5760 5760 5759
5818 5817 5816 5815 5816 5816 5814 5816 5814 5811 5813 5813 5813 5814 5815 5818 5818 5817 5817 5817 5816 5817 5817 5817 5817 5817 5815 5814 5812 5811 5809 5806 5803 5798 5793 5787 5781 5775 5768 5763 5759 5757 5753 5752 5751
5811 5812 5811 5811 5810 5810 5811 5811 5812 5810 5809 5810 5811 5811 5812 5814 5814 5814 5813 5813 5813 5813 5813 5813 5813 5813 5812 5810 5809 5807 5806 5802 5798 5794 5789 5784 5777 5772 5766 5761 5755 5750 5746 5743 5742
5805 5806 5806 5806 5806 5807 5807 5806 5806 5809 5805 5805 5808 5808 5808 5809 5810 5810 5810 5809 5809 5809 5809 5809 5809 5809 5808 5807 5806 5804 5802 5799 5795 5791 5785 5780 5775 5769 5762 5755 5748 5742 5738 5735 5732
5800 5799 5799 5800 5801 5799 5801 5803 5802 5802 5804 5800 5802 5805 5805 5806 5806 5806 5806 5806 5806 5805 5806 5805 5805 5805 5804 5803 5802 5800 5797 5795 5792 5788 5782 5777 5771 5763 5756 5749 5742 5737 5732 5726 5721
5791 5792 5792 5791 5791 5793 5795 5795 5799 5797 5798 5798 5797 5799 5800 5800 5802 5802 5803 5802 5801 5801 5801 5801 5801 5801 5800 5799 5798 5796 5794 5791 5789 5785 5780 5773 5766 5759 5751 5744 5737 5730 5724 5717 5712
5784 5784 5783 5785 5785 5786 5784 5787 5789 5792 5793 5793 5792 5792 5795 5796 5796 5798 5798 5799 5798 5797 5796 5797 5796 5797 5796 5795 5794 5792 5791 5789 5786 5782 5778 5771 5762 5756 5747 5739 5731 5723 5715 5707 5701
5773 5774 5776 5775 5776 5777 5779 5778 5780 5782 5785 5786 5787 5787 5788 5792 5792 5793 5795 5795 5795 5794 5793 5793 5793 5792 5792 5791 5790 5789 5788 5786 5783 5778 5774 5769 5761 5754 5746 5736 5727 5718 5710 5701 5692
5760 5763 5765 5765 5768 5768 5767 5771 5772 5772 5771 5782 5779 5780 5782 5786 5788 5788 5790 5791 5791 5790 5789 5789 5788 5788 5788 5787 5787 5785 5785 5783 5779 5776 5772 5767 5762 5753 5745 5735 5724 5716 5707 5698 5687
5746 5748 5752 5754 5755 5756 5760 5757 5760 5761 5762 5771 5771 5774 5775 5780 5784 5783 5785 5786 5786 5786 5787 5786 5785 5784 5784 5784 5783 5783 5781 5780 5776 5773 5770 5764 5759 5752 5745 5736 5726 5717 5708 5699 5690
5732 5732 5736 5739 5742 5743 5745 5748 5746 5750 5744 5755 5764 5766 5768 5773 5776 5778 5779 5781 5781 5782 5782 5782 5782 5782 5781 5780 5780 5779 5779 5777 5774 5771 5768 5762 5758 5752 5745 5736 5727 5719 5711 5704 5698
5713 5716 5719 5723 5726 5727 5729 5732 5732 5732 5736 5745 5755 5759 5760 5764 5767 5771 5773 5775 5777 5778 5778 5778 5779 5779 5778 5777 5777 5776 5775 5774 5772 5768 5765 5761 5757 5752 5745 5737 5730 5722 5716 5709 5704
5689 5694 5700 5704 5709 5709 5711 5713 5710 5721 5728 5735 5743 5750 5751 5754 5758 5762 5765 5768 5772 5773 5774 5775 5776 5776 5776 5775 5774 5773 5772 5771 5768 5765 5763 5760 5756 5752 5746 5739 5733 5725 5720 5715 5710
5665 5671 5678 5686 5687 5689 5689 5684 5698 5710 5716 5726 5733 5738 5743 5746 5750 5753 5759 5763 5764 5767 5770 5770 5772 5772 5772 5772 5772 5770 5769 5768 5765 5763 5760 5758 5756 5752 5747 5741 5734 5729 5724 5718 5715
5641 5646 5657 5660 5666 5671 5665 5667 5684 5695 5703 5714 5719 5725 5733 5738 5741 5745 5750 5756 5759 5761 5762 5765 5767 5768 5768 5769 5768 5767 5766 5764 5762 5760 5758 5757 5754 5751 5749 5744 5737 5732 5729 5723 5719
5612 5620 5633 5636 5638 5645 5636 5651 5666 5680 5690 5694 5705 5712 5717 5726 5731 5735 5741 5748 5751 5754 5756 5758 5761 5764 5765 5765 5765 5764 5763 5761 5759 5758 5755 5755 5754 5750 5748 5745 5740 5735 5731 5728 5724
5582 5593 5607 5610 5613 5618 5623 5637 5648 5659 5670 5675 5687 5697 5704 5714 5718 5725 5729 5736 5741 5746 5749 5751 5754 5758 5760 5761 5761 5760 5760 5758 5757 5756 5753 5752 5753 5749 5746 5745 5741 5737 5734 5732 5729
5557 5569 5579 5579 5580 5594 5608 5622 5629 5639 5652 5659 5667 5682 5691 5700 5707 5712 5720 5726 5731 5736 5741 5744 5747 5751 5754 5757 5757 5757 5756 5755 5754 5752 5751 5750 5750 5747 5745 5743 5742 5739 5736 5734 5732
5532 5541 5551 5551 5561 5574 5587 5600 5608 5621 5635 5640 5649 5661 5674 5685 5693 5699 5708 5715 5721 5726 5730 5735 5739 5744 5747 5750 5752 5753 5752 5751 5750 5750 5749 5748 5747 5746 5744 5743 5741 5739 5738 5735 5733
5511 5517 5527 5532 5542 5552 5566 5575 5590 5599 5615 5627 5631 5644 5657 5667 5677 5685 5694 5702 5709 5714 5719 5725 5732 5736 5739 5742 5745 5747 5748 5747 5747 5746 5746 5746 5745 5744 5742 5741 5740 5738 5737 5736 5734
5495 5497 5505 5512 5523 5530 5542 5549 5569 5586 5599 5609 5618 5635 5639 5649 5665 5674 5683 5690 5698 5705 5710 5715 5723 5727 5730 5734 5737 5740 5742 5744 5744 5743 5742 5742 5742 5741 5740 5739 5739 5737 5736 5735 5734
5483 5485 5487 5494 5500 5509 5520 5534 5552 5569 5576 5589 5601 5614 5618 5637 5648 5655 5665 5676 5685 5694 5701 5707 5712 5716 5721 5725 5728 5732 5737 5738 5740 5740 5739 5739 5739 5738 5737 5736 5736 5735 5734 5734 5733